Погода в Туле

Погода в Туле : погода сейчас, прогноз погоды и архив. Всё, что Вы хотите узнать о погоде в Туле!

Хотите узнать прогноз погоды в Туле? Тогда Вам сюда: Погода в Туле

Поиск расширенной информации на нашем сайте:

Другие новости

Новости СМИ2

Главная страница сайта

Новости сайта

03.07.2017

Напоминаем, что на нашем специализированном сайте Метеоцентр.Азия вы можете получить высокодетализированные автоматические прогнозы погоды по пунктам России, СНГ и мира в авиационном формате (включающие направление и скорость ветра, видимость, явления погоды, количество и форму облачности, нижнюю и верхнюю границу облачности).


Погода в Туле - сегодня

Время (UTC), дата Ветер
(°,м/с) 
Видим.   Явления Облачность Т
(°С)
Тd
(°С)
f(%) Тe
(°С)
Pmin
(гПа)
dP
(гПа)
Po
(мм)
O2
(г/м3)
Тmin Tmax R s Состояние
почвы
00 12.10.18 210 (ЮЗ) 10 км    ясно 
+1.9 +1 94 +3  1035.3  1.2  757  303           
03 12.10.18 210 (ЮЗ) 4000 м  дымка  ясно 
+0.3 -0.4 95 +1  1036.1  0.7  758  305  +0.3         
09 12.10.18 280 (З) 10 км    3/0 средняя 
[Ac trans]
+12.8 +3.6 53 +13  1036.4  759  291           
12 12.10.18 250 (З) 10 км    ясно 
+15.6 -0.4 33 +16  1034.6  -1.5  757  289           
15 12.10.18 230 (ЮЗ) 10 км    ясно 
+11.3 +2.4 54 +12  1033.3  -1.7  756  292           
21 12.10.18 250 (З) 10 км    ясно 
+6.5 +3 78 +6  1033  756  297           
00 13.10.18 260 (З) 10 км    ясно 
+5.8 +3 82 +6  1032.4  -0.6  755  298           
03 13.10.18 250 (З) 10 км    4/0 средняя, верхняя 
[Ac trans|Ci fib]
+5.4 +3.8 89 +4  1031.9  -0.6  755  298  +5.3         
09 13.10.18 280 (З) 10 км    8/0 средняя, верхняя 
[As trans|Ci fib]
+14.2 +7.6 64 +14  1030.2  -0.3  754  288           
12 13.10.18 270 (З) 10 км    8/0 средняя, верхняя 
[Ac trans|Cs]
+14.5 +7.1 61 +15  1029.5  -0.7  754  287           
15 13.10.18 250 (З) 10 км    3/0 средняя 
[Ac trans]
+12.4 +6.7 68 +14  1028.6  -1  753  289           
21 13.10.18 250 (З) 10 км    ясно 
+7.7 +5.7 87 +8  1028.6  0.3  753  294           
00 14.10.18 240 (ЮЗ) 10 км    ясно 
+6.4 +5.1 91 +7  1028.6  -0.2  752  295           
03 14.10.18 230 (ЮЗ) 10 км  дымка  ясно 
+5.3 +4.4 94 +6  1028.5  0.2  752  297  +5.3         
06 14.10.18 240 (ЮЗ) 4000 м  в посл. час туман  9/3 300 м средняя, верхняя 
[St|Ac trans|Ci fib]
+8.1 +7.3 95 +8  1028.5  0.3  752  293  +4.6        влажная 
09 14.10.18 270 (З) 10 км    10/0 верхняя 
[Ci fib]
+15.2 +9.3 68 +15  1027.8  -0.1  752  286           
12 14.10.18 280 (З) 10 км    9/0 верхняя 
[Ci fib]
+17.7 +9.3 58 +18  1026.6  -0.9  752  283           
15 14.10.18 250 (З) 10 км    8/0 средняя, верхняя 
[Ac trans|Ci fib]
+14 +9.4 74 +15  1026.7  -0.2  752  286           
21 14.10.18 290 (З) 10 км    4/0 верхняя 
[Ci fib]
+11.1 +8.9 86 +11  1027.7  0.4  752  290           
00 15.10.18 250 (З) 4000 м  дымка  ясно 
+8.4 +7.4 93 +9  1028.4  0.4  752  293           
03 15.10.18 230 (ЮЗ) 2000 м  дымка  ясно 
+7.4 +6.5 94 +8  1028.5  752  294  +7.4         
06 15.10.18 270 (З) 0500 м  туман  9/3 300 м средняя 
[Frnb|Ac trans]
+8.7 +7.9 95 +10  1029  0.6  753  293  +7.4        влажная 
09 15.10.18 280 (З) 10 км    10/0 верхняя 
[Cs]
+16.5 +10.2 66 +18  1028.7  0.5  753  284           
12 15.10.18 290 (З) 10 км    8/0 верхняя 
[Ci sp]
+19.6 +7.6 46 +21  1027.8  -0.7  753  282           
15 15.10.18 250 (З) 10 км    8/0 средняя, верхняя 
[Ac trans|Ci fib]
+14.8 +7.7 62 +16  1028  -0.2  753  286           
Время (UTC), дата Ветер
(°,м/с) 
Видим.   Явления Облачность Т
(°С)
Тd
(°С)
f(%) Тe
(°С)
Pmin
(гПа)
dP
(гПа)
Po
(мм)
O2
(г/м3)
Тmin Tmax R s Состояние
почвы

Для получения пояснительной информации подведите курсор к названию столбца.

ПОГОДА в Туле - архив

Всё, что Вы хотите узнать о погоде в Туле - удобно и подробно!

Выберите нужную дату (начиная с 1 января 2015* года) и нажмите кнопку "Найти".
Будут отображены архивные сводки погоды по пункту Тула, начиная с указанной даты.


Отображать данные в формате CSV (для использования в таблицах Excel)


Внимание! Наш архив погоды предназначен исключительно для личного некоммерческого использования в познавательных целях. Если Вам необходимы официальные справки о состоянии погоды (для производственных, юридических, коммерческих и т.п. целей), обращайтесь в органы Росгидромета.

*Примечание: данная дата относится к архиву по метеостанциям СССР (Россия, СНГ, Балтия).
Архив по метеостанциям Зарубежной Европы и Азии (кроме Китая) хранится 10 дней, по другим регионам земного шара (Китай, Африка, Америка, Австралия, Океания) - 1 день.

Тула - район местоположения метеостанции


Название, широта, долгота, высота метеостанции:
Тула 54.2°ш. 37.6°д. 203 м над ур. моря [Российская Федерация]

Дополнительная информация

В oтличие oт бoльшинства пoгoдных сайтoв мы публикуем пoдрoбную метеoинфoрмацию в детальнoм прoфессиoнальнoм фoрмате.

Характеристики температуры и влажнoсти вoздуха измеряются на высoте 2 м в тени вдали oт зданий и деревьев.
Скoрoсть ветра измеряется на высoте 10 м (на урoвне рoста челoвека скoрoсть ветра ниже в 1.5-2 раза). Если метеoстанция нахoдится в гoрoде или в лесу, тo скoрoсть ветра занижена на 2-4 м/с пo сравнению с oткрытым местoм. Скoрoсть ветра над акватoриями крупных рек и oзёр, а также на вершинах хoлмoв на 2-5 м/с выше, чем в oбычных услoвиях.
Атмoсфернoе давление в разных тoчках местнoсти мoжет значительнo oтличаться oт давления на метеoстанции, в зависимoсти oт услoвий рельефа (при пoдъёме на 10 м давление пoнижается примернo на 1 мм рт.ст.).